Location: Leganes-MADRID
(40.3441°N, 3.7527°W)
Time: 08:10:50
(UTC+01:00)

ISS - Visible Passes

Search period start: 16 December 2017 00:00
Search period end: 26 December 2017 00:00
Orbit: 402 x 406 km, 51.6° (Epoch: 16 December)

Date Brightness Start Highest point End Pass type
(mag) Time Alt. Az. Time Alt. Az. Time Alt. Az.
16 Dec -3.8 18:38:50 10° NW 18:42:07 83° SW 18:45:23 10° SE visible
17 Dec -0.7 19:23:52 10° W 19:26:03 17° SW 19:28:13 10° S visible
18 Dec -1.7 18:30:59 10° WNW 18:33:58 32° SW 18:36:55 10° SSE visible
20 Dec -0.3 18:23:57 10° W 18:25:36 13° SW 18:27:15 10° SSW visible
25 Dec -0.6 07:33:57 10° S 07:36:05 16° SE 07:38:13 10° E visible
